GW5231 Weather Reports


time (UTC)temp
F
wind
direction
speed
knots
gust
knots
rain 1hr
in
rain 24hr
in
rain mn
in
humidity
%
barometer
mb
20260503051509 48 208 3.5 4.3 0.00 0.00 0.00 61 1013.5
20260503051007 49 203 2.6 3.5 0.00 0.00 0.00 60 1013.7
20260503050502 50 205 3.5 4.3 0.00 0.00 0.00 58 1013.6
20260503050000 50 216 2.6 3.5 0.00 0.00 0.00 56 1013.9
20260503045457 50 227 2.6 3.5 0.00 0.00 0.00 58 1013.8
20260503044954 50 211 2.6 3.5 0.00 0.00 0.00 57 1013.8
20260503044450 50 217 3.5 4.3 0.00 0.00 0.00 55 1013.9
20260503043948 51 215 3.5 4.3 0.00 0.00 0.00 55 1013.9
20260503043444 50 200 5.2 5.2 0.00 0.00 0.00 54 1013.9
20260503042941 49 240 1.7 1.7 0.00 0.00 0.00 56 1014.0
20260503042437 49 253 1.7 1.7 0.00 0.00 0.00 58 1014.0
20260503041934 49 204 3.5 4.3 0.00 0.00 0.00 57 1014.0
20260503041431 49 209 3.5 4.3 0.00 0.00 0.00 57 1014.0
20260503040928 49 209 3.5 3.5 0.00 0.00 0.00 58 1014.1
20260503040426 49 209 3.5 4.3 0.00 0.00 0.00 57 1014.1
20260503035923 50 210 3.5 4.3 0.00 0.00 0.00 56 1014.1
20260503035420 50 220 2.6 3.5 0.00 0.00 0.00 55 1014.1
20260503034917 50 205 3.5 4.3 0.00 0.00 0.00 57 1014.2
20260503034415 51 213 3.5 4.3 0.00 0.00 0.00 57 1014.4
20260503033911 51 209 3.5 3.5 0.00 0.00 0.00 54 1014.3
20260503033409 51 250 1.7 1.7 0.00 0.00 0.00 55 1014.3
20260503032907 51 261 1.7 1.7 0.00 0.00 0.00 53 1014.4
20260503032405 51 211 2.6 3.5 0.00 0.00 0.00 52 1014.5
20260503031902 51 246 1.7 1.7 0.00 0.00 0.00 54 1014.7
20260503031400 50 217 2.6 3.5 0.00 0.00 0.00 56 1014.7
20260503030856 50 209 3.5 4.3 0.00 0.00 0.00 56 1014.8
20260503030353 50 220 3.5 3.5 0.00 0.00 0.00 54 1014.7
20260503025849 50 197 3.5 3.5 0.00 0.00 0.00 56 1014.7
20260503025347 50 197 2.6 3.5 0.00 0.00 0.00 54 1014.9
20260503024844 51 197 1.7 1.7 0.00 0.00 0.00 52 1015.1
20260503024340 51 197 2.6 3.5 0.00 0.00 0.00 51 1015.0
20260503023837 51 197 1.7 1.7 0.00 0.00 0.00 50 1014.9
20260503023335 51 208 2.6 3.5 0.00 0.00 0.00 52 1014.9
20260503022832 51 208 3.5 3.5 0.00 0.00 0.00 48 1014.9
20260503022331 49 208 1.7 1.7 0.00 0.00 0.00 57 1015.1
20260503021828 50 208 1.7 1.7 0.00 0.00 0.00 54 1015.2
20260503021325 50 208 0.9 0.9 0.00 0.00 0.00 56 1015.1
20260503020822 49 245 1.7 1.7 0.00 0.00 0.00 56 1015.2
20260503020320 50 279 0.9 0.9 0.00 0.00 0.00 57 1015.3
20260503015816 50 276 0.9 0.9 0.00 0.00 0.00 54 1015.2
20260503015313 51 275 0.9 0.9 0.00 0.00 0.00 56 1015.4
20260503014809 51 279 0.9 0.9 0.00 0.00 0.00 54 1015.1
20260503014307 52 217 1.7 1.7 0.00 0.00 0.00 51 1015.1
20260503013804 53 217 3.5 3.5 0.00 0.00 0.00 49 1015.1
20260503013301 54 267 1.7 1.7 0.00 0.00 0.00 50 1015.2
20260503012758 54 261 1.7 1.7 0.00 0.00 0.00 44 1015.3
20260503012255 55 251 1.7 1.7 0.00 0.00 0.00 45 1015.3
20260503011752 55 254 1.7 1.7 0.00 0.00 0.00 43 1015.4
20260503011249 55 258 0.9 1.7 0.00 0.00 0.00 44 1015.4
20260503010745 55 258 1.7 1.7 0.00 0.00 0.00 44 1015.4
20260503010242 56 247 1.7 1.7 0.00 0.00 0.00 43 1015.5
20260503005740 56 256 0.9 1.7 0.00 0.00 0.00 42 1015.3
20260503005237 57 317 0.9 0.9 0.00 0.00 0.00 40 1015.6
20260503004733 57 261 2.6 3.5 0.00 0.00 0.00 39 1015.4
20260503004231 57 291 1.7 1.7 0.00 0.00 0.00 39 1015.7
20260503003728 57 277 1.7 1.7 0.00 0.00 0.00 39 1015.8
20260503003225 57 293 0.9 0.9 0.00 0.00 0.00 39 1015.8
20260503002722 57 249 3.5 4.3 0.00 0.00 0.00 38 1015.8
20260503002219 57 296 1.7 1.7 0.00 0.00 0.00 38 1016.0
20260503001715 57 269 2.6 4.3 0.00 0.00 0.00 38 1015.7
20260503001212 57 260 2.6 3.5 0.00 0.00 0.00 39 1015.8
20260503000710 58 280 5.2 7.0 0.00 0.00 0.00 38 1015.7
20260503000207 58 314 2.6 3.5 0.00 0.00 0.00 36 1015.7
20260502235703 58 266 7.0 9.6 0.00 0.00 0.00 37 1015.7
20260502235201 59 262 2.6 5.2 0.00 0.00 0.00 38 1015.8
20260502234657 59 327 7.0 9.6 0.00 0.00 0.00 36 1016.0
20260502234155 58 252 4.3 7.0 0.00 0.00 0.00 37 1016.2
20260502233650 59 315 2.6 3.5 0.00 0.00 0.00 36 1016.0
20260502233147 60 308 3.5 4.3 0.00 0.00 0.00 35 1016.2
20260502232643 60 299 2.6 3.5 0.00 0.00 0.00 38 1016.0
20260502232141 60 298 5.2 5.2 0.00 0.00 0.00 38 1016.0
20260502231637 60 285 4.3 7.0 0.00 0.00 0.00 35 1016.1
20260502231135 59 273 3.5 4.3 0.00 0.00 0.00 38 1015.8
20260502230633 60 271 6.1 7.8 0.00 0.00 0.00 35 1016.2
20260502230131 60 330 5.2 7.0 0.00 0.00 0.00 35 1016.4
20260502225626 60 263 4.3 4.3 0.00 0.00 0.00 34 1016.4
20260502225124 60 268 4.3 5.2 0.00 0.00 0.00 33 1016.3
20260502224620 60 308 7.8 11.3 0.00 0.00 0.00 35 1016.3
20260502224117 60 233 2.6 4.3 0.00 0.00 0.00 35 1016.2
20260502223615 61 290 3.5 4.3 0.00 0.00 0.00 35 1016.4
20260502223113 60 285 3.5 4.3 0.00 0.00 0.00 36 1016.4
20260502222610 60 292 7.8 9.6 0.00 0.00 0.00 35 1016.3
20260502222106 60 288 6.1 7.0 0.00 0.00 0.00 33 1016.5
20260502221602 60 243 9.6 11.3 0.00 0.00 0.00 33 1016.3
20260502221100 60 263 10.4 15.6 0.00 0.00 0.00 34 1016.6
20260502220555 60 326 7.8 8.7 0.00 0.00 0.00 35 1016.6
20260502220052 60 273 5.2 7.0 0.00 0.00 0.00 34 1016.7
20260502215549 59 277 3.5 4.3 0.00 0.00 0.00 32 1016.5
20260502215046 59 206 7.0 9.6 0.00 0.00 0.00 33 1016.7
20260502214543 60 226 9.6 12.2 0.00 0.00 0.00 33 1016.9
20260502214041 60 271 7.8 8.7 0.00 0.00 0.00 34 1016.8
20260502213537 60 241 7.8 9.6 0.00 0.00 0.00 31 1016.7
20260502213035 59 255 3.5 4.3 0.00 0.00 0.00 34 1016.8
20260502212534 60 272 1.7 3.5 0.00 0.00 0.00 38 1017.1
20260502212031 60 266 7.8 9.6 0.00 0.00 0.00 31 1016.8
20260502211526 60 248 6.1 7.0 0.00 0.00 0.00 33 1016.8
20260502211024 60 253 8.7 12.2 0.00 0.00 0.00 32 1017.0
20260502210521 60 257 6.1 9.6 0.00 0.00 0.00 32 1017.0
20260502210018 60 236 7.8 9.6 0.00 0.00 0.00 34 1017.2
20260502205514 59 277 5.2 7.8 0.00 0.00 0.00 32 1017.2
20260502205011 58 259 3.5 3.5 0.00 0.00 0.00 35 1017.4
20260502204508 57 265 1.7 3.5 0.00 0.00 0.00 35 1017.4
20260502204006 59 300 5.2 7.8 0.00 0.00 0.00 32 1017.5
20260502203503 60 242 10.4 13.0 0.00 0.00 0.00 31 1017.3
20260502203000 60 276 3.5 4.3 0.00 0.00 0.00 33 1017.3
20260502202456 60 244 9.6 13.0 0.00 0.00 0.00 33 1017.5
20260502201954 60 312 2.6 3.5 0.00 0.00 0.00 32 1017.5
20260502201450 59 272 5.2 7.0 0.00 0.00 0.00 37 1017.7
20260502200947 58 281 9.6 12.2 0.00 0.00 0.00 32 1017.7
20260502200442 59 293 5.2 8.7 0.00 0.00 0.00 36 1017.8
20260502195940 58 218 9.6 13.9 0.00 0.00 0.00 32 1017.9
20260502195437 59 258 7.0 9.6 0.00 0.00 0.00 33 1017.9
20260502194934 59 280 3.5 4.3 0.00 0.00 0.00 38 1018.1
20260502194431 59 281 4.3 7.0 0.00 0.00 0.00 37 1018.1
20260502193926 58 229 5.2 7.8 0.00 0.00 0.00 36 1018.1
20260502193424 59 248 6.1 8.7 0.00 0.00 0.00 33 1018.3
20260502192919 58 199 7.8 13.0 0.00 0.00 0.00 31 1018.5
20260502192416 59 228 9.6 12.2 0.00 0.00 0.00 33 1018.6
20260502191913 59 287 7.8 8.7 0.00 0.00 0.00 36 1018.6
20260502191411 58 251 7.0 8.7 0.00 0.00 0.00 36 1018.5
20260502190909 58 256 9.6 13.9 0.00 0.00 0.00 33 1018.6
20260502190405 57 306 6.1 7.8 0.00 0.00 0.00 35 1018.6
20260502185901 59 322 4.3 4.3 0.00 0.00 0.00 35 1018.6
20260502185357 58 294 7.8 9.6 0.00 0.00 0.00 34 1018.7
20260502184855 57 262 3.5 4.3 0.00 0.00 0.00 34 1019.0
20260502184350 58 237 6.1 7.8 0.00 0.00 0.00 35 1018.9
20260502183847 57 286 3.5 3.5 0.00 0.00 0.00 42 1019.1
20260502183343 56 245 6.1 7.8 0.00 0.00 0.00 38 1019.0
20260502182838 57 273 4.3 5.2 0.00 0.00 0.00 38 1019.1
20260502182333 57 242 8.7 9.6 0.00 0.00 0.00 35 1019.3
20260502181830 57 226 8.7 11.3 0.00 0.00 0.00 35 1019.2
20260502181330 57 304 1.7 1.7 0.00 0.00 0.00 35 1019.2
20260502180827 58 329 11.3 13.9 0.00 0.00 0.00 38 1019.1
20260502180324 56 256 1.7 3.5 0.00 0.00 0.00 37 1019.3
20260502170238 56 294 7.0 12.2 0.00 0.00 0.00 37 1020.0
20260502164225 54 317 10.4 13.0 0.00 0.00 0.00 38 1020.1
20260502163720 56 231 4.3 7.0 0.00 0.00 0.00 37 1020.0
20260502163217 55 338 3.5 4.3 0.00 0.00 0.00 42 1020.2
20260502162714 54 325 6.1 8.7 0.00 0.00 0.00 39 1020.4
20260502162211 55 280 7.8 9.6 0.00 0.00 0.00 35 1020.2
20260502161708 55 284 4.3 5.2 0.00 0.00 0.00 39 1020.3
20260502161204 55 357 5.2 11.3 0.00 0.00 0.00 37 1020.7
20260502160703 54 316 9.6 12.2 0.00 0.00 0.00 38 1020.5
20260502160202 54 234 7.0 8.7 0.00 0.00 0.00 37 1020.5
20260502152115 53 301 6.1 7.8 0.00 0.00 0.00 38 1020.9
20260502151612 53 309 7.8 8.7 0.00 0.00 0.00 39 1020.8
20260502151109 54 321 1.7 1.7 0.00 0.00 0.00 43 1020.8
20260502150606 52 273 1.7 1.7 0.00 0.00 0.00 43 1021.1
20260502130451 42 205 3.5 4.3 0.00 0.00 0.00 61 1021.8
20260502123434 41 215 5.2 7.0 0.00 0.00 0.00 61 1021.8
20260502122931 41 211 3.5 3.5 0.00 0.00 0.00 67 1021.8
20260502122427 40 206 3.5 4.3 0.00 0.00 0.00 68 1021.8
20260502121925 40 188 3.5 3.5 0.00 0.00 0.00 69 1021.8
20260502121422 40 197 4.3 5.2 0.00 0.00 0.00 67 1021.5
20260502120920 39 191 4.3 5.2 0.00 0.00 0.00 66 1021.6
20260502120416 39 196 2.6 4.3 0.00 0.00 0.00 70 1021.5
20260502115913 37 207 3.5 3.5 0.00 0.00 0.00 73 1021.6
20260502115410 35 273 0.9 0.9 0.00 0.00 0.00 81 1021.6
20260502114906 35 310 0.0 0.0 0.00 0.00 0.00 78 1021.6
20260502114403 35 325 0.0 0.0 0.00 0.00 0.00 73 1021.6
20260502113900 35 325 0.0 0.0 0.00 0.00 0.00 73 1021.6
20260502113358 35 325 0.0 0.0 0.00 0.00 0.00 69 1021.6
20260502112856 36 317 0.0 0.0 0.00 0.00 0.00 69 1021.6
20260502112353 37 120 1.7 1.7 0.00 0.00 0.00 63 1021.4
20260502111850 36 47 0.9 1.7 0.00 0.00 0.00 61 1021.8
20260502111348 37 5 0.9 0.9 0.00 0.00 0.00 61 1021.5
20260502110845 37 16 0.9 0.9 0.00 0.00 0.00 63 1021.6
20260502110343 36 274 0.9 0.9 0.00 0.00 0.00 68 1021.6
20260502105840 36 290 0.9 0.9 0.00 0.00 0.00 68 1021.6
20260502105337 37 308 0.0 0.9 0.00 0.00 0.00 70 1021.9
20260502104835 37 65 0.9 0.9 0.00 0.00 0.00 58 1021.8
20260502104332 36 22 0.9 0.9 0.00 0.00 0.00 59 1021.8
20260502103829 36 352 0.9 0.9 0.00 0.00 0.00 71 1021.9
20260502103326 36 320 0.0 0.0 0.00 0.00 0.00 69 1021.8
20260502102824 36 318 0.0 0.0 0.00 0.00 0.00 70 1021.8
20260502102320 37 323 0.0 0.0 0.00 0.00 0.00 72 1021.8
20260502101818 37 315 0.0 0.9 0.00 0.00 0.00 65 1022.0
20260502101316 37 335 0.0 0.0 0.00 0.00 0.00 66 1022.0
20260502100814 36 333 0.0 0.0 0.00 0.00 0.00 68 1021.8
20260502100313 36 324 0.0 0.0 0.00 0.00 0.00 76 1021.9
20260502091247 36 321 0.0 0.0 0.00 0.00 0.00 66 1022.1
20260502090744 35 321 0.0 0.0 0.00 0.00 0.00 67 1022.1
20260502090240 35 321 0.0 0.0 0.00 0.00 0.00 72 1022.1
20260502071141 35 323 0.0 0.0 0.00 0.00 0.00 84 1022.2
20260502070639 36 323 0.0 0.0 0.00 0.00 0.00 84 1022.4
20260502070137 36 323 0.0 0.0 0.00 0.00 0.00 84 1022.4
20260502065635 36 323 0.0 0.0 0.00 0.00 0.00 83 1022.4
20260502065132 36 323 0.0 0.0 0.00 0.00 0.00 81 1022.4
20260502064631 36 323 0.0 0.0 0.00 0.00 0.00 81 1022.4
20260502064128 35 323 0.0 0.0 0.00 0.00 0.00 76 1022.4
20260502063625 35 323 0.0 0.0 0.00 0.00 0.00 73 1022.4
20260502063123 35 323 0.0 0.0 0.00 0.00 0.00 75 1022.6
20260502062620 36 323 0.0 0.0 0.00 0.00 0.00 77 1022.3
20260502062117 36 323 0.0 0.0 0.00 0.00 0.00 75 1022.4
20260502061615 36 323 0.0 0.0 0.00 0.00 0.00 75 1022.4
20260502061113 36 323 0.0 0.0 0.00 0.00 0.00 79 1022.4
20260502060607 36 323 0.0 0.0 0.00 0.00 0.00 66 1022.4
20260502060104 36 323 0.0 0.0 0.00 0.00 0.00 66 1022.5
20260502055602 37 323 0.0 0.0 0.00 0.00 0.00 72 1022.5
20260502055100 37 323 0.0 0.0 0.00 0.00 0.00 62 1022.3
20260502054559 37 323 0.0 0.0 0.00 0.00 0.00 67 1022.4
20260502054055 36 322 0.0 0.0 0.00 0.00 0.00 62 1022.4
20260502053552 36 319 0.0 0.0 0.00 0.00 0.00 70 1022.4
20260502053050 35 323 0.0 0.0 0.00 0.00 0.00 68 1022.3
20260502052548 35 323 0.0 0.0 0.00 0.00 0.00 65 1022.4
20260502052046 35 323 0.0 0.0 0.00 0.00 0.00 69 1022.5